This is the latest recevied weather packets stored in our database for station/object KO4LFZ. If no packets are shown the sender has not sent any weather packets the latest 10 day(s).
| Time | Temp. | Humidity | Pressure | Rain* | Wind** | Luminosity | Snow |
|---|---|---|---|---|---|---|---|
| 1777984490 | 17.78° C | 74% | 1008.4 hPa | 0 mm | - | 10 W/m² | - |
| 1777984186 | 17.78° C | 74% | 1008.7 hPa | 0 mm | - | 15 W/m² | - |
| 1777983883 | 17.78° C | 74% | 1008.5 hPa | 0 mm | - | 19 W/m² | - |
| 1777983580 | 17.78° C | 74% | 1008.3 hPa | 0 mm | - | 20 W/m² | - |
| 1777983277 | 17.78° C | 74% | 1008.4 hPa | 0 mm | - | 23 W/m² | - |
| 1777982973 | 17.78° C | 74% | 1008.3 hPa | 0 mm | - | 28 W/m² | - |
| 1777982670 | 17.78° C | 73% | 1008.5 hPa | 0 mm | - | 26 W/m² | - |
| 1777982369 | 17.78° C | 73% | 1008 hPa | 0 mm | - | 28 W/m² | - |
| 1777982065 | 17.78° C | 74% | 1008.1 hPa | 0 mm | - | 24 W/m² | - |
| 1777981764 | 17.78° C | 73% | 1008 hPa | 0 mm | - | 17 W/m² | - |
| 1777981459 | 17.78° C | 74% | 1007.9 hPa | 0 mm | - | 15 W/m² | - |
| 1777981156 | 17.78° C | 74% | 1007.9 hPa | 0 mm | - | 11 W/m² | - |
| 1777980853 | 17.22° C | 74% | 1008 hPa | 0 mm | - | 8 W/m² | - |
| 1777980548 | 17.78° C | 73% | 1007.9 hPa | 0 mm | - | 6 W/m² | - |
| 1777980246 | 17.22° C | 73% | 1007.8 hPa | 0 mm | - | 5 W/m² | - |
| 1777979942 | 17.22° C | 74% | 1007.8 hPa | 0 mm | - | 3 W/m² | - |
| 1777979637 | 17.22° C | 74% | 1007.8 hPa | 0 mm | - | 2 W/m² | - |
| 1777979333 | 17.22° C | 73% | 1007.7 hPa | 0 mm | - | 1 W/m² | - |
| 1777979031 | 17.22° C | 73% | 1007.7 hPa | 0 mm | - | 0 W/m² | - |
| 1777978727 | 17.22° C | 73% | 1007.8 hPa | 0 mm | - | 0 W/m² | - |
| 1777978424 | 17.22° C | 74% | 1007.8 hPa | 0 mm | - | 0 W/m² | - |
| 1777978120 | 17.22° C | 73% | 1008 hPa | 0 mm | - | 0 W/m² | - |
| 1777977818 | 17.22° C | 73% | 1007.7 hPa | 0 mm | - | 0 W/m² | - |
| 1777977513 | 17.22° C | 73% | 1007.7 hPa | 0 mm | - | 0 W/m² | - |
| 1777977211 | 17.22° C | 74% | 1008 hPa | 0 mm | - | 0 W/m² | - |
* Rain latest hour (hover to see other rain measurements)
** Current wind speed in m/s (hover to see current wind gust speed)